• In Romania
  • List of Countries
  • For 7 days
  • Water Temperature
  • Satellite Maps
  • Weather Map
  • Weather Widgets
  • user-avatar
    Login

    Hourly Weather Lezhe

    Today, 24 February, Friday

    Time Temperature Precipitation Wind Pressure Humidity
    00:00 +6°C° 0 mm 2 mps 738 mmHg 94%
    01:00 +6°C° 0 mm 2 mps 737 mmHg 94%
    02:00 +7°C° 0 mm 3 mps 737 mmHg 94%
    03:00 +7°C° 0 mm 3 mps 737 mmHg 94%
    04:00 +7°C° 0 mm 3 mps 737 mmHg 94%
    05:00 +7°C° 0.1 mm 3 mps 737 mmHg 94%
    06:00 +7°C° 0.1 mm 3 mps 737 mmHg 94%
    07:00 +7°C° 0.1 mm 3 mps 737 mmHg 93%
    08:00 +9°C° 0 mm 3 mps 737 mmHg 90%
    09:00 +10°C° 0 mm 3 mps 737 mmHg 86%
    10:00 +11°C° 0 mm 3 mps 737 mmHg 82%
    11:00 +12°C° 0 mm 3 mps 736 mmHg 80%
    12:00 +12°C° 0 mm 3 mps 736 mmHg 78%
    13:00 +13°C° 0 mm 3 mps 736 mmHg 76%
    14:00 +13°C° 0 mm 3 mps 735 mmHg 78%
    15:00 +12°C° 0 mm 3 mps 735 mmHg 81%
    16:00 +12°C° 0 mm 3 mps 735 mmHg 84%
    17:00 +11°C° 0 mm 3 mps 735 mmHg 87%
    18:00 +10°C° 0 mm 3 mps 735 mmHg 91%
    19:00 +9°C° 0 mm 3 mps 735 mmHg 95%
    20:00 +8°C° 0.1 mm 4 mps 734 mmHg 95%
    21:00 +8°C° 0.1 mm 4 mps 734 mmHg 94%
    22:00 +8°C° 0.1 mm 5 mps 734 mmHg 94%
    23:00 +8°C° 1.7 mm 5 mps 734 mmHg 94%

    Tomorrow, 25 February, Saturday

    Time Temperature Precipitation Wind Pressure Humidity
    00:00 +8°C° 1.7 mm 5 mps 734 mmHg 93%
    01:00 +8°C° 1.7 mm 5 mps 734 mmHg 93%
    02:00 +8°C° 2.3 mm 5 mps 734 mmHg 93%
    03:00 +8°C° 2.3 mm 5 mps 734 mmHg 93%
    04:00 +8°C° 2.3 mm 5 mps 734 mmHg 93%
    05:00 +8°C° 1.7 mm 4 mps 734 mmHg 93%
    06:00 +8°C° 1.7 mm 4 mps 734 mmHg 93%
    07:00 +9°C° 1.7 mm 3 mps 735 mmHg 94%
    08:00 +9°C° 1.6 mm 3 mps 735 mmHg 93%
    09:00 +9°C° 1.6 mm 3 mps 736 mmHg 93%
    10:00 +10°C° 1.6 mm 3 mps 736 mmHg 93%
    11:00 +8°C° 1.5 mm 4 mps 736 mmHg 92%
    12:00 +7°C° 1.5 mm 4 mps 736 mmHg 92%
    13:00 +7°C° 1.5 mm 4 mps 736 mmHg 91%
    14:00 +7°C° 0.6 mm 4 mps 736 mmHg 91%
    15:00 +6°C° 0.6 mm 4 mps 737 mmHg 90%
    16:00 +6°C° 0.6 mm 5 mps 737 mmHg 90%
    17:00 +6°C° 0.5 mm 5 mps 737 mmHg 90%
    18:00 +6°C° 0.5 mm 5 mps 738 mmHg 89%
    19:00 +5°C° 0.5 mm 5 mps 738 mmHg 89%
    20:00 +5°C° 0.4 mm 5 mps 739 mmHg 89%
    21:00 +5°C° 0.4 mm 5 mps 739 mmHg 89%
    22:00 +5°C° 0.4 mm 4 mps 739 mmHg 89%
    23:00 +5°C° 0.3 mm 4 mps 739 mmHg 88%

    Day after tomorrow, 26 February, Sunday

    Time Temperature Precipitation Wind Pressure Humidity
    00:00 +5°C° 0.3 mm 4 mps 740 mmHg 88%
    01:00 +4°C° 0.3 mm 4 mps 740 mmHg 88%
    02:00 +4°C° 0.2 mm 4 mps 740 mmHg 89%
    03:00 +4°C° 0.2 mm 3 mps 739 mmHg 89%
    04:00 +4°C° 0.2 mm 3 mps 739 mmHg 89%
    05:00 +4°C° 0 mm 3 mps 739 mmHg 89%
    06:00 +4°C° 0 mm 3 mps 739 mmHg 89%
    07:00 +4°C° 0 mm 3 mps 739 mmHg 89%
    08:00 +7°C° 0 mm 2 mps 739 mmHg 86%
    09:00 +9°C° 0 mm 2 mps 739 mmHg 84%
    10:00 +12°C° 0 mm 2 mps 740 mmHg 81%
    11:00 +13°C° 0 mm 2 mps 739 mmHg 78%
    12:00 +14°C° 0 mm 1 mps 739 mmHg 75%
    13:00 +15°C° 0 mm 1 mps 739 mmHg 72%
    14:00 +15°C° 0 mm 1 mps 738 mmHg 75%
    15:00 +15°C° 0 mm 1 mps 738 mmHg 78%
    16:00 +14°C° 0 mm 2 mps 738 mmHg 81%
    17:00 +13°C° 0 mm 1 mps 738 mmHg 83%
    18:00 +11°C° 0 mm 1 mps 738 mmHg 86%
    19:00 +10°C° 0 mm 1 mps 738 mmHg 89%
    20:00 +9°C° 0 mm 1 mps 738 mmHg 89%
    21:00 +9°C° 0 mm 1 mps 738 mmHg 89%
    22:00 +8°C° 0 mm 1 mps 739 mmHg 88%
    23:00 +8°C° 0 mm 1 mps 738 mmHg 89%

    27 February, Monday

    Time Temperature Precipitation Wind Pressure Humidity
    00:00 +8°C° 0 mm 1 mps 738 mmHg 90%
    01:00 +8°C° 0 mm 1 mps 738 mmHg 90%
    02:00 +8°C° 0 mm 1 mps 738 mmHg 90%
    03:00 +7°C° 0 mm 1 mps 738 mmHg 91%
    04:00 +7°C° 0 mm 1 mps 737 mmHg 91%
    05:00 +7°C° 0 mm 1 mps 738 mmHg 90%
    06:00 +8°C° 0 mm 1 mps 738 mmHg 90%
    07:00 +8°C° 0 mm 1 mps 738 mmHg 90%
    08:00 +10°C° 0 mm 1 mps 738 mmHg 84%
    09:00 +13°C° 0 mm 1 mps 738 mmHg 78%
    10:00 +14°C° 0 mm 0 mps 738 mmHg 72%
    11:00 +16°C° 0 mm 1 mps 738 mmHg 71%
    12:00 +16°C° 0 mm 1 mps 737 mmHg 70%
    13:00 +16°C° 0 mm 1 mps 737 mmHg 69%
    14:00 +16°C° 0 mm 1 mps 737 mmHg 72%
    15:00 +16°C° 0 mm 1 mps 736 mmHg 75%
    16:00 +15°C° 0 mm 1 mps 736 mmHg 78%
    17:00 +13°C° 0 mm 1 mps 736 mmHg 83%
    18:00 +12°C° 0 mm 1 mps 737 mmHg 87%
    19:00 +10°C° 0 mm 1 mps 737 mmHg 92%
    20:00 +10°C° 0 mm 1 mps 737 mmHg 92%
    21:00 +10°C° 0 mm 1 mps 737 mmHg 93%
    22:00 +10°C° 0 mm 1 mps 737 mmHg 93%
    23:00 +8°C° 0 mm 2 mps 737 mmHg 94%

    28 February, Tuesday

    Time Temperature Precipitation Wind Pressure Humidity
    00:00 +8°C° 0 mm 2 mps 737 mmHg 94%
    01:00 +8°C° 0 mm 2 mps 737 mmHg 95%
    02:00 +8°C° 0.1 mm 2 mps 737 mmHg 94%
    03:00 +9°C° 0.1 mm 2 mps 737 mmHg 94%
    04:00 +9°C° 0.1 mm 2 mps 736 mmHg 94%
    05:00 +9°C° 0.1 mm 2 mps 737 mmHg 94%
    06:00 +9°C° 0.1 mm 2 mps 737 mmHg 94%
    07:00 +9°C° 0.1 mm 3 mps 737 mmHg 94%
    08:00 +10°C° 0.1 mm 3 mps 737 mmHg 91%
    09:00 +11°C° 0.1 mm 3 mps 737 mmHg 87%
    10:00 +12°C° 0.1 mm 3 mps 737 mmHg 84%
    11:00 +13°C° 0.2 mm 3 mps 736 mmHg 83%
    12:00 +13°C° 0.2 mm 3 mps 736 mmHg 81%
    13:00 +14°C° 0.2 mm 3 mps 736 mmHg 80%
    14:00 +13°C° 0.2 mm 3 mps 735 mmHg 81%
    15:00 +13°C° 0.2 mm 3 mps 735 mmHg 83%
    16:00 +13°C° 0.2 mm 3 mps 735 mmHg 85%
    17:00 +12°C° 0.3 mm 3 mps 735 mmHg 89%
    18:00 +11°C° 0.3 mm 3 mps 735 mmHg 92%
    19:00 +10°C° 0.3 mm 3 mps 735 mmHg 96%
    20:00 +10°C° 0.3 mm 3 mps 735 mmHg 97%
    21:00 +10°C° 0.3 mm 3 mps 736 mmHg 97%
    22:00 +10°C° 0.3 mm 4 mps 736 mmHg 97%
    23:00 +10°C° 0.2 mm 4 mps 736 mmHg 97%

    1 March, Wednesday

    Time Temperature Precipitation Wind Pressure Humidity
    00:00 +10°C° 0.2 mm 4 mps 736 mmHg 97%
    01:00 +10°C° 0.2 mm 4 mps 735 mmHg 97%
    02:00 +10°C° 0.3 mm 4 mps 735 mmHg 97%
    03:00 +10°C° 0.3 mm 4 mps 735 mmHg 97%
    04:00 +10°C° 0.3 mm 4 mps 735 mmHg 97%
    05:00 +10°C° 0.4 mm 4 mps 735 mmHg 96%
    06:00 +10°C° 0.4 mm 3 mps 735 mmHg 96%
    07:00 +10°C° 0.4 mm 3 mps 736 mmHg 96%
    08:00 +10°C° 0.3 mm 3 mps 736 mmHg 93%
    09:00 +11°C° 0.3 mm 4 mps 736 mmHg 90%
    10:00 +12°C° 0.3 mm 4 mps 736 mmHg 87%
    11:00 +12°C° 0.1 mm 3 mps 736 mmHg 86%
    12:00 +12°C° 0.1 mm 3 mps 736 mmHg 85%
    13:00 +14°C° 0.1 mm 2 mps 736 mmHg 84%
    14:00 +14°C° 0.1 mm 2 mps 736 mmHg 84%
    15:00 +14°C° 0.1 mm 2 mps 737 mmHg 85%
    16:00 +14°C° 0.1 mm 1 mps 737 mmHg 85%
    17:00 +13°C° 0 mm 1 mps 737 mmHg 89%
    18:00 +11°C° 0 mm 1 mps 738 mmHg 93%
    19:00 +10°C° 0 mm 1 mps 738 mmHg 96%
    20:00 +10°C° 0 mm 1 mps 739 mmHg 96%
    21:00 +9°C° 0 mm 1 mps 739 mmHg 95%
    22:00 +9°C° 0 mm 1 mps 739 mmHg 95%
    23:00 +8°C° 0 mm 1 mps 739 mmHg 94%
    Show more